CAPE
4 0 0 0 0 0 0 0 0 0 0 0 0 0 0 0 0 0 0 0 0 0 0 0 0 0 0 0 0 0 0 0 0 0 0 0 0 0 0 0 0 0 0 0
10 0 0 0 0 0 0 0 0 0 0 0 0 0 0 0 0 0 0 0 0 0 0 0 0 0 0 0 0 0 0 0 0 0 0 0 0 0 0 0 0 0 0 0
1 0 0 0 0 0 0 0 0 0 0 0 0 0 0 0 0 0 0 0 0 0 0 0 0 0 0 0 0 0 0 0 0 0 0 0 0 0 0 0 0 0 0 0
10 0 0 1 0 0 0 0 0 0 0 0 0 0 0 0 0 0 0 0 0 0 0 0 0 0 0 0 0 0 0 0 0 0 0 0 0 0 0 0 0 0 0 0
0 4 0 2 0 0 0 0 0 0 0 0 0 0 0 0 0 0 0 0 0 0 0 0 0 0 0 0 0 0 0 0 0 0 0 0 0 0 0 0 0 0 0 0
11 6 7 0 0 0 0 0 0 0 0 0 0 0 0 0 0 0 0 0 0 0 0 0 0 0 0 0 0 0 0 0 0 0 0 0 0 0 0 0 0 0 0 0
3 24 2 10 17 0 0 0 0 0 0 0 0 0 0 0 0 0 0 0 0 0 0 0 0 0 0 0 0 0 0 0 0 0 0 0 0 0 0 0 0 0 0 0
0 4 9 4 14 0 0 0 0 0 0 0 0 0 0 0 0 0 0 0 0 0 0 0 0 0 0 0 0 0 0 0 0 0 0 0 0 0 0 0 0 0 0 0
16 0 16 7 4 18 0 8 0 0 0 0 0 0 0 0 0 0 0 0 0 0 0 0 0 0 0 0 0 0 0 0 0 0 0 0 0 0 0 0 0 0 0 0
0 6 0 0 9 31 3 0 5 0 0 0 0 0 0 0 0 0 0 0 0 0 0 0 0 0 0 0 0 0 0 0 0 0 0 0 0 0 0 0 0 0 0 0
0 2 0 24 10 3 5 12 1 0 0 0 0 0 0 0 0 0 0 0 0 0 0 0 0 0 0 0 0 1 1 0 0 0 0 0 0 0 0 0 0 0 0 0
0 25 0 0 0 0 14 8 0 6 0 0 0 0 0 0 0 0 0 0 0 0 0 0 0 0 0 0 0 0 1 0 0 0 0 0 0 0 0 0 0 0 0 0
0 23 0 1 6 0 27 1 2 0 0 0 0 0 0 0 0 0 0 0 0 0 0 0 0 0 0 0 0 1 0 0 0 0 0 0 0 0 0 0 0 0 0 0
1 0 21 0 0 2 0 7 5 2 6 0 0 0 0 0 0 0 0 0 0 0 0 0 0 0 0 0 1 2 1 2 0 0 0 0 0 0 0 0 0 0 0 0
0 0 0 0 0 0 22 0 1 6 0 0 0 0 0 0 0 0 0 0 0 0 0 0 0 0 0 0 3 3 3 2 2 0 0 0 0 0 0 0 0 0 0 0
0 0 0 0 0 0 0 17 22 0 0 0 0 0 0 0 0 0 0 0 0 0 0 0 0 0 0 0 0 2 1 0 2 1 0 0 0 0 0 0 0 0 0 0
0 0 0 0 0 0 0 0 0 0 0 0 0 0 0 0 0 0 0 0 0 0 0 0 0 0 0 0 0 0 1 0 2 1 1 0 0 0 0 0 0 0 0 0
0 0 0 0 0 0 0 0 0 0 0 0 0 0 0 0 0 0 0 0 0 0 0 0 0 0 0 0 0 0 1 0 1 2 0 0 0 0 0 0 0 0 0 0
0 0 0 0 0 0 0 0 0 0 0 0 0 0 0 0 0 0 0 0 0 0 0 0 0 0 0 0 0 0 0 0 1 0 0 0 0 0 0 0 0 0 0 0
0 0 0 0 0 0 0 0 0 0 0 0 0 0 0 0 0 0 0 0 0 0 0 0 0 0 0 0 0 0 0 0 0 0 0 0 0 0 0 0 0 0 0 0
0 0 0 0 0 0 0 4 0 0 0 0 0 0 0 0 0 0 0 0 0 0 0 0 0 0 0 0 0 0 0 0 0 0 0 0 0 0 0 0 0 0 0 0
0 0 0 0 0 0 0 0 0 0 1 0 0 0 0 0 0 0 0 0 0 0 0 0 0 0 0 0 0 0 0 0 0 0 0 0 0 0 0 0 0 0 0 0
0 0 0 0 0 0 0 0 0 1 0 0 16 8 0 0 0 0 0 0 0 0 0 0 0 0 0 0 0 0 0 0 0 0 0 0 0 0 0 0 0 0 0 0
0 0 0 0 0 0 0 0 0 0 0 0 0 0 0 0 0 0 0 0 0 0 0 0 0 0 0 0 0 0 0 0 0 0 0 0 0 0 0 0 0 0 0 0
0 0 0 0 0 0 0 0 0 0 0 0 0 0 0 0 0 0 0 0 0 0 0 0 0 0 0 0 0 0 0 0 0 0 0 0 0 0 0 0 0 0 0 0
0 0 0 0 0 0 0 0 0 0 0 0 0 0 0 0 0 0 0 0 0 0 0 0 0 0 0 0 0 0 0 0 0 0 0 0 0 0 0 0 0 0 0 0
CIN
-0 -0 -0 -0 -0 -0 -0 -0 -0 -0 -0 -0 -0 -0 -0 -0 -0 -0 -0 -0 -0 -0 -0 -0 -0 -0 -0 -0 -0 -0 -0 -0 -0 -0 -0 -0 -0 -0 -0 -0 -0 -0 -0 -0
-0 -0 -0 -0 -0 -0 -0 -0 -0 -0 -0 -0 -0 -0 -0 -0 -0 -0 -0 -0 -0 -0 -0 -0 -0 -0 -0 -0 -0 -0 -0 -0 -0 -0 -0 -0 -0 -0 -0 -0 -0 -0 -0 -0
-0 -0 -0 -0 -0 -0 -0 -0 -0 -0 -0 -0 -0 -0 -0 -0 -0 -0 -0 -0 -0 -0 -0 -0 -0 -0 -0 -0 -0 -0 -0 -0 -0 -0 -0 -0 -0 -0 -0 -0 -0 -0 -0 -0
-0 -0 -0 -0 -0 -0 -0 -0 -0 -0 -0 -0 -0 -0 -0 -0 -0 -0 -0 -0 -0 -0 -0 -0 -0 -0 -0 -0 -0 -0 -0 -0 -0 -0 -0 -0 -0 -0 -0 -0 -0 -0 -0 -0
-0 -1 -0 -0 -0 -0 -0 -0 -0 -0 -0 -0 -0 -0 -0 -0 -0 -0 -0 -0 -0 -0 -0 -0 -0 -0 -0 -0 -0 -0 -0 -0 -0 -0 -0 -0 -0 -0 -0 -0 -0 -0 -0 -0
-0 -2 -2 -0 -0 -0 -0 -0 -0 -0 -0 -0 -0 -0 -0 -0 -0 -0 -0 -0 -0 -0 -0 -0 -0 -0 -0 -0 -0 -0 -0 -0 -0 -0 -0 -0 -0 -0 -0 -0 -0 -0 -0 -0
-0 -0 -8 -4 -0 -0 -0 -0 -0 -0 -0 -0 -0 -0 -0 -0 -0 -0 -0 -0 -0 -0 -0 -0 -0 -0 -0 -0 -0 -0 -0 -0 -0 -0 -0 -0 -0 -0 -0 -0 -0 -0 -0 -0
-0 -0 -1 -5 -1 -0 -0 -0 -0 -0 -0 -0 -0 -0 -0 -0 -0 -0 -0 -0 -0 -0 -0 -0 -0 -0 -0 -0 -0 -0 -0 -0 -0 -0 -0 -0 -0 -0 -0 -0 -0 -0 -0 -0
-3 -0 -11 -12 -1 -2 -0 -0 -0 -0 -0 -0 -0 -0 -0 -0 -0 -0 -0 -0 -0 -0 -0 -0 -0 -0 -0 -0 -0 -0 -0 -0 -0 -0 -0 -0 -0 -0 -0 -0 -0 -0 -0 -0
-0 -1 -0 -0 -2 -4 -2 -0 -1 -0 -0 -0 -0 -0 -0 -0 -0 -0 -0 -0 -0 -0 -0 -0 -0 -0 -0 -0 -0 -0 -0 -0 -0 -0 -0 -0 -0 -0 -0 -0 -0 -0 -0 -0
-0 -0 -0 -2 -7 -2 -1 -2 -1 -0 -0 -0 -0 -0 -0 -0 -0 -0 -0 -0 -0 -0 -0 -0 -0 -0 -0 -0 -0 -0 -0 -0 -0 -0 -0 -0 -0 -0 -0 -0 -0 -0 -0 -0
-0 -0 -1 -0 -0 -0 -3 -2 -0 -0 -0 -0 -0 -0 -0 -0 -0 -0 -0 -0 -0 -0 -0 -0 -0 -0 -0 -0 -0 -0 -0 -0 -0 -0 -0 -0 -0 -0 -0 -0 -0 -0 -0 -0
-0 -14 -0 -6 -24 -0 -4 -0 -1 -0 -0 -0 -0 -0 -0 -0 -0 -0 -0 -0 -0 -0 -0 -0 -0 -0 -0 -0 -0 -0 -0 -0 -0 -0 -0 -0 -0 -0 -0 -0 -0 -0 -0 -0
-0 -0 -19 -1 -11 -14 -0 -8 -1 -1 -0 -0 -0 -0 -0 -0 -0 -0 -0 -0 -0 -0 -0 -0 -0 -0 -0 -0 -0 -0 -0 -0 -0 -0 -0 -0 -0 -0 -0 -0 -0 -0 -0 -0
-0 -0 -0 -0 -2 -0 -16 -0 -5 -4 -0 -0 -0 -0 -0 -0 -0 -0 -0 -0 -0 -0 -0 -0 -0 -0 -0 -0 -0 -0 -0 -0 -0 -0 -0 -0 -0 -0 -0 -0 -0 -0 -0 -0
-0 -0 -0 -0 -0 -0 -0 -4 -29 -0 -0 -0 -0 -0 -0 -0 -0 -0 -0 -0 -0 -0 -0 -0 -0 -0 -0 -0 -0 -0 -0 -0 -0 -0 -0 -0 -0 -0 -0 -0 -0 -0 -0 -0
-0 -0 -0 -0 -0 -0 -0 -0 -0 -0 -4 -0 -0 -0 -0 -0 -0 -0 -0 -0 -0 -0 -0 -0 -0 -0 -0 -0 -0 -0 -0 -0 -0 -0 -0 -0 -0 -0 -0 -0 -0 -0 -0 -0
-0 -0 -0 -0 -0 -0 -0 -0 -0 -0 -0 -0 -0 -0 -0 -0 -0 -0 -0 -0 -0 -0 -0 -0 -0 -0 -0 -0 -0 -0 -0 -0 -0 -0 -0 -0 -0 -0 -0 -0 -0 -0 -0 -0
-0 -0 -0 -0 -0 -0 -0 -0 -0 -0 -0 -0 -0 -0 -0 -0 -0 -0 -0 -0 -0 -0 -0 -0 -0 -0 -0 -0 -0 -0 -0 -0 -0 -0 -0 -0 -0 -0 -0 -0 -0 -0 -0 -0
-0 -0 -0 -0 -0 -0 -0 -0 -0 -0 -0 -0 -0 -0 -0 -0 -0 -0 -0 -0 -0 -0 -0 -0 -0 -0 -0 -0 -0 -0 -0 -0 -0 -0 -0 -0 -0 -0 -0 -0 -0 -0 -0 -0
-0 -0 -0 -0 -0 -0 -0 -54 -0 -0 -0 -0 -0 -0 -0 -0 -0 -0 -0 -0 -0 -0 -0 -0 -0 -0 -0 -0 -0 -0 -0 -0 -0 -0 -0 -0 -0 -0 -0 -0 -0 -0 -0 -0
-0 -0 -0 -0 -0 -0 -0 -0 -0 -0 -43 -0 -0 -0 -0 -0 -0 -0 -0 -0 -0 -0 -0 -0 -0 -0 -0 -0 -0 -0 -0 -0 -0 -0 -0 -0 -0 -0 -0 -0 -0 -0 -0 -0
-0 -0 -0 -0 -0 -0 -0 -0 -0 -2 -5 -36 -26 -49 -0 -0 -0 -0 -0 -0 -0 -0 -0 -0 -0 -0 -0 -0 -0 -0 -0 -0 -0 -0 -0 -0 -0 -0 -0 -0 -0 -0 -0 -0
-0 -0 -0 -0 -0 -0 -0 -0 -0 -0 -0 -0 -0 -0 -0 -0 -0 -0 -0 -0 -0 -0 -0 -0 -0 -0 -0 -0 -0 -0 -0 -0 -0 -0 -0 -0 -0 -0 -0 -0 -0 -0 -0 -0
-0 -0 -0 -0 -0 -0 -0 -0 -0 -0 -0 -0 -0 -0 -0 -0 -0 -0 -0 -0 -0 -0 -0 -0 -0 -0 -0 -0 -0 -0 -0 -0 -0 -0 -0 -0 -0 -0 -0 -0 -0 -0 -0 -0
-0 -0 -0 -0 -0 -0 -0 -0 -0 -0 -0 -0 -0 -0 -0 -0 -0 -0 -0 -0 -0 -0 -0 -0 -0 -0 -0 -0 -0 -0 -0 -0 -0 -0 -0 -0 -0 -0 -0 -0 -0 -0 -0 -0
Wind_Speed
33 40 46 40 39 42 45 45 44 39 34 37 45 50 49 44 48 48 47 44 44 44 37 34 35 33 30 29 25 21 17 14 12 10 9 8 4 2 4 6 7 9 11 13
43 58 45 42 43 45 45 49 49 40 33 36 42 50 48 47 48 48 48 50 47 43 38 35 31 29 29 28 25 22 19 16 14 12 10 9 3 4 3 4 5 7 9 11
55 50 42 44 44 46 49 49 46 43 32 35 41 53 52 48 48 49 47 48 48 46 42 38 32 29 27 26 24 22 20 18 16 13 10 8 6 6 4 2 3 5 7 10
57 56 53 45 51 45 55 45 46 43 41 49 34 56 51 43 46 48 49 47 48 46 43 39 35 31 28 24 20 20 20 19 17 15 12 11 9 6 3 1 2 4 6 8
60 46 52 59 51 43 53 38 39 43 47 47 49 48 51 41 50 53 45 43 43 42 43 40 36 32 28 25 21 19 18 19 18 17 15 13 10 7 4 3 1 2 4 6
67 42 44 59 47 42 33 35 34 35 40 53 55 49 60 53 49 48 43 43 42 39 39 38 35 33 28 24 22 20 18 18 18 18 16 15 12 10 6 5 3 1 2 4
63 65 51 41 45 42 39 37 42 45 45 61 37 45 64 32 37 42 42 40 38 36 34 34 32 30 28 25 23 21 20 19 19 19 17 16 14 11 9 7 5 3 2 2
56 68 63 44 49 46 47 42 43 50 49 51 36 48 47 42 40 37 39 38 34 32 28 29 30 31 29 27 26 24 23 21 20 20 19 17 15 13 10 8 6 4 2 2
48 59 42 49 45 44 46 53 46 39 36 43 45 51 48 45 42 36 32 32 36 37 33 30 27 28 28 26 26 26 25 23 22 21 19 18 16 14 12 9 6 5 3 1
42 45 48 45 41 45 44 44 45 44 51 51 47 50 50 33 38 40 46 38 36 34 32 29 27 25 24 25 24 23 24 24 23 21 20 18 17 15 13 10 8 6 4 3
41 45 35 38 50 51 52 47 48 47 45 53 51 45 35 40 36 29 27 31 34 35 29 26 25 23 22 21 22 23 22 22 22 21 19 18 17 16 14 12 9 7 5 4
41 37 48 44 43 46 48 50 50 49 50 51 45 44 24 29 32 33 30 25 24 23 24 21 20 19 20 20 20 21 21 22 22 20 19 19 18 17 15 13 10 8 7 5
28 34 48 37 43 40 49 50 50 54 49 51 51 39 24 21 18 20 23 20 16 16 17 17 17 17 18 19 20 20 20 20 20 20 20 19 19 18 17 15 12 10 8 7
29 34 38 53 39 36 50 51 50 56 53 57 54 40 30 27 22 16 15 15 13 12 14 15 16 17 18 18 19 20 21 21 21 21 21 21 20 19 18 15 13 11 10 8
25 27 31 42 37 36 43 48 53 54 60 53 47 47 32 22 22 19 15 14 11 12 13 13 14 16 18 18 19 20 21 21 21 21 21 21 20 19 18 16 15 13 11 9
23 23 24 28 29 30 39 44 48 53 57 55 42 42 33 27 19 15 14 15 12 12 12 13 14 15 15 17 18 19 20 21 21 22 22 21 21 20 19 17 15 13 11 10
26 26 23 26 27 30 37 36 42 50 49 50 53 40 30 30 23 19 16 12 11 12 11 11 12 13 14 15 15 17 18 18 20 20 20 20 19 19 18 17 16 15 13 12
29 27 24 27 24 41 26 26 36 39 40 42 43 43 38 26 22 16 12 12 11 9 9 10 10 10 12 13 14 13 15 17 19 21 20 19 19 19 18 17 16 16 15 14
30 27 26 25 27 27 26 25 29 36 36 31 39 41 36 32 23 22 17 15 14 14 12 12 10 9 9 9 9 11 12 14 17 20 21 20 19 19 18 17 17 17 16 16
28 26 26 25 27 31 23 18 21 25 37 29 33 37 38 32 39 32 21 18 18 17 16 14 14 13 11 11 10 9 10 13 15 15 17 17 18 18 18 18 18 19 19 18
28 30 32 30 25 26 22 17 20 33 33 22 23 28 34 36 34 28 23 22 21 22 22 20 19 18 17 15 13 13 13 14 13 13 14 15 17 18 19 19 19 19 20 19
33 32 32 30 29 29 22 19 23 23 17 22 19 20 24 25 23 21 21 21 22 24 24 23 24 23 20 19 18 17 19 18 15 11 13 15 16 18 19 19 21 21 20 19
38 33 32 33 33 25 20 21 20 19 19 21 22 18 17 24 26 24 22 24 23 23 24 23 22 22 21 21 20 19 20 18 16 15 15 14 15 17 18 19 20 21 21 20
34 27 37 35 35 35 34 31 28 28 27 25 24 25 24 23 26 31 28 27 27 26 25 23 25 25 24 22 23 23 20 19 18 18 18 18 17 17 18 20 22 22 22 22
33 29 38 41 40 36 39 37 37 37 34 34 31 31 31 29 28 30 33 35 32 31 29 28 27 28 28 26 25 25 24 22 23 23 22 21 20 20 21 22 23 25 28 25
29 33 36 41 34 35 36 34 35 38 39 39 38 36 34 32 32 30 32 33 37 37 34 33 32 31 31 31 29 26 26 25 25 24 24 25 24 23 23 24 25 27 28 27
Wind_Direction
260 257 251 249 249 258 263 261 261 263 267 264 259 256 253 256 253 252 251 251 250 250 255 256 253 251 251 250 246 243 239 237 238 245 250 267 268 328 2 18 33 44 43 48
259 254 257 260 255 254 256 257 258 266 268 264 264 258 256 256 254 252 251 248 248 250 254 255 255 251 249 249 246 242 237 232 232 237 245 269 243 294 333 3 27 39 47 51
255 257 256 255 254 251 251 253 256 261 270 268 267 261 255 256 256 253 252 251 250 249 252 253 252 250 250 248 242 238 233 229 227 230 238 256 266 288 301 347 17 43 53 55
259 256 253 252 250 248 250 253 256 259 262 258 266 257 255 257 255 252 251 251 251 251 252 253 252 249 247 246 242 235 231 226 223 216 223 217 229 230 247 246 5 48 59 59
249 255 247 248 250 248 251 255 254 255 258 263 257 259 254 256 252 249 252 253 254 254 252 253 252 250 247 244 238 233 226 222 216 213 217 219 227 230 240 253 174 68 58 61
249 256 253 249 248 248 254 250 254 257 257 255 251 253 251 252 254 254 255 254 254 255 254 254 253 251 245 241 235 231 221 218 213 209 208 203 212 221 227 221 196 153 68 63
246 245 251 252 241 241 238 236 245 247 249 249 257 252 244 262 258 257 256 255 255 256 257 255 250 247 243 233 228 227 219 216 211 202 202 207 209 212 213 202 200 172 136 92
244 240 240 242 238 238 233 229 239 243 245 249 252 251 252 254 259 263 258 256 256 254 256 255 253 249 245 237 230 229 224 222 217 214 216 219 217 218 221 210 205 192 176 129
253 244 247 238 238 236 235 233 237 250 255 251 250 252 261 257 258 261 262 258 255 254 255 255 255 251 245 239 234 230 226 226 220 218 219 218 216 215 219 218 217 218 226 158
256 255 240 236 237 237 236 235 232 239 241 245 249 251 250 261 258 260 256 257 259 258 254 253 255 252 245 239 237 235 229 226 221 217 218 218 216 217 218 217 216 219 217 193
264 249 251 235 233 231 230 231 233 238 243 243 247 252 260 258 262 266 267 262 260 255 252 251 253 250 243 237 235 235 230 224 220 217 216 214 213 215 217 219 223 221 213 198
264 254 245 246 239 234 233 233 230 232 235 241 248 249 279 269 266 261 263 269 268 256 245 248 249 244 239 236 235 233 229 224 220 217 217 218 217 218 219 221 221 221 214 210
286 250 242 243 240 238 232 231 230 234 239 240 240 245 265 277 288 266 263 261 267 253 242 240 244 241 238 237 236 234 228 223 220 218 218 219 220 219 220 222 223 220 219 217
281 261 249 238 244 237 230 231 232 231 234 236 238 244 259 269 278 279 273 260 262 255 244 242 242 241 241 240 237 234 229 226 223 224 222 220 219 220 222 223 223 221 219 214
274 273 259 250 250 249 238 232 231 233 233 236 240 241 250 270 272 273 272 262 256 252 247 245 244 244 243 241 239 236 231 229 226 225 224 224 223 223 224 224 226 226 223 216
271 277 274 256 251 251 243 238 234 233 234 238 244 243 249 260 271 275 262 252 250 249 250 249 248 247 246 244 241 238 234 231 230 230 228 227 225 224 224 224 224 223 220 218
270 273 275 257 259 249 245 241 236 234 235 237 238 242 251 251 258 257 257 256 251 247 247 250 251 250 248 246 243 240 236 231 231 230 229 227 225 224 223 222 222 221 221 221
266 270 267 261 264 238 257 259 243 239 238 241 244 243 244 252 253 252 257 245 240 245 242 249 256 256 252 249 246 243 238 233 232 232 230 229 226 225 225 223 222 222 223 221
260 264 267 264 258 261 258 256 242 238 235 250 245 243 243 244 248 243 251 249 247 246 250 251 260 264 259 256 253 245 240 237 235 234 234 232 229 227 224 223 222 225 222 223
259 258 261 263 258 252 254 255 257 249 240 257 251 244 241 241 238 240 246 249 251 253 252 255 260 265 265 260 255 253 248 243 240 237 236 233 231 227 225 224 226 228 227 228
257 250 250 253 261 259 260 262 268 245 244 263 261 250 242 241 246 250 246 250 252 252 256 259 259 261 263 262 260 255 255 252 252 245 242 238 236 233 231 230 229 225 227 227
257 251 250 249 255 258 262 261 260 264 257 262 263 257 252 250 247 247 250 252 255 256 257 261 257 259 261 261 258 257 253 254 256 255 249 244 240 239 236 231 231 227 225 224
253 255 253 248 246 263 259 258 268 272 278 267 265 265 261 257 252 255 258 259 261 263 259 259 260 259 262 259 258 256 254 255 256 257 254 251 246 242 238 232 229 227 229 228
257 269 256 256 256 260 264 272 271 271 271 276 271 266 266 265 259 257 257 259 260 261 262 260 259 260 260 262 258 258 258 258 257 257 258 254 250 246 242 239 234 231 231 232
261 263 256 257 262 272 266 271 274 272 271 267 270 268 265 264 263 258 256 257 259 260 262 261 261 261 261 261 262 261 261 261 260 259 258 258 255 250 247 245 240 239 240 238
264 261 257 255 269 269 269 279 279 273 272 269 267 266 265 266 263 262 256 258 257 258 261 260 260 261 263 261 261 264 264 262 262 261 260 258 256 254 252 249 249 249 248 245